West Palm Beach, FL

7:42 PM EST on November 17, 2019 (GMT -0500)
Palm Beach International

Weather History for KPBI - September, 2019

Change the Weather History Date:

Monday, September 23, 2019

  Actual Average Record
Temperature  
Mean Temperature 82 °F 81 °F  
Max Temperature 86 °F 88 °F 94 °F (1990)
Min Temperature 78 °F 75 °F 64 °F (1897)
Degree Days  
Heating Degree Days 0 0  
Month to date heating degree days 0 0  
Since 1 July heating degree days 0 0  
Cooling Degree Days 17 16  
Month to date cooling degree days 424 389  
Year to date cooling degree days 3590 3095  
Growing Degree Days 32 (Base 50)    
Moisture  
Dew Point 64 °F    
Average Humidity 57    
Maximum Humidity 62    
Minimum Humidity 51    
Precipitation  
Precipitation 0.00 in 0.28 in 3.60 in (1960)
Month to date precipitation 1.36 6.54  
Year to date precipitation 45.32 47.26  
Snow  
Snow 0.00 in - - ()
Month to date snowfall 0.0  
Since 1 July snowfall 0.0  
Since 1 September snowfall 0.0  
Snow Depth 0.00 in    
Sea Level Pressure  
Sea Level Pressure 29.97 in    
Wind  
Wind Speed 12 mph (NE)    
Max Wind Speed 18 mph    
Max Gust Speed 24 mph    
Visibility 10 miles    
Events      
T = Trace of Precipitation, MM = Missing Value Source: NWS Daily Summary

Daily Weather History Graph

Daily Weather History Graph

Search for Another Location

Airport or City:

Astronomy

Sep. 23, 2019 Rise Set
Actual Time 7:09 AM EDT 7:15 PM EDT
Civil Twilight 6:46 AM EDT 7:39 PM EDT
Nautical Twilight 6:19 AM EDT 8:05 PM EDT
Astronomical Twilight 5:52 AM EDT 8:33 PM EDT
Moon 1:25 AM EDT (9/23) 3:33 PM EDT (9/23)
Length of Visible Light 12h 52m
Length of Day
12h 06m
Waning Crescent, 33% of the Moon is Illuminated
Sep 23
Waning Crescent
Sep 28
New
Oct 5
First Quarter
Oct 13
Full
Oct 21
Last Quarter

Hourly Weather History & Observations

Time (EDT) Temp. Heat Index Dew Point Humidity Pressure Visibility Wind Dir Wind Speed Gust Speed Precip Events Conditions
12:53 AM 80.1 °F 81.9 °F 64.9 °F 60% 30.02 in 10.0 mi ENE 15.0 mph - N/A   Scattered Clouds
1:53 AM 79.0 °F - 63.0 °F 58% 30.00 in 10.0 mi NE 15.0 mph - N/A   Scattered Clouds
2:53 AM 79.0 °F - 63.0 °F 58% 29.99 in 10.0 mi NE 12.7 mph - N/A   Scattered Clouds
3:53 AM 78.1 °F - 63.0 °F 60% 29.97 in 10.0 mi ENE 9.2 mph - N/A   Partly Cloudy
4:53 AM 78.1 °F - 64.0 °F 62% 29.96 in 10.0 mi NE 8.1 mph - N/A   Partly Cloudy
5:53 AM 78.1 °F - 63.0 °F 60% 29.97 in 10.0 mi ENE 11.5 mph - N/A   Scattered Clouds
6:53 AM 79.0 °F - 63.0 °F 58% 29.98 in 10.0 mi ENE 10.4 mph - N/A   Scattered Clouds
7:53 AM 79.0 °F - 63.0 °F 58% 29.98 in 10.0 mi ENE 10.4 mph - N/A   Scattered Clouds
8:53 AM 81.0 °F 82.2 °F 63.0 °F 54% 30.00 in 10.0 mi NNE 13.8 mph - N/A   Scattered Clouds
9:53 AM 82.9 °F 84.4 °F 64.0 °F 53% 30.02 in 10.0 mi ENE 12.7 mph 19.6 mph N/A   Scattered Clouds
10:53 AM 82.9 °F 84.6 °F 64.9 °F 54% 30.02 in 10.0 mi NE 15.0 mph - N/A   Scattered Clouds
11:53 AM 84.0 °F 85.8 °F 64.9 °F 53% 30.02 in 10.0 mi NE 15.0 mph - N/A   Scattered Clouds
12:53 PM 84.0 °F 85.8 °F 64.9 °F 53% 30.00 in 10.0 mi NNE 12.7 mph - N/A   Scattered Clouds
1:53 PM 84.9 °F 86.1 °F 64.0 °F 49% 29.98 in 10.0 mi NNE 12.7 mph 21.9 mph N/A   Scattered Clouds
2:53 PM 84.9 °F 87.1 °F 66.0 °F 53% 29.96 in 10.0 mi NNE 12.7 mph - N/A   Scattered Clouds
3:53 PM 84.9 °F 87.6 °F 66.9 °F 55% 29.95 in 10.0 mi NE 15.0 mph 19.6 mph N/A   Scattered Clouds
4:53 PM 82.9 °F 84.6 °F 64.9 °F 54% 29.94 in 10.0 mi NE 12.7 mph - N/A   Scattered Clouds
5:53 PM 82.9 °F 84.6 °F 64.9 °F 54% 29.93 in 10.0 mi NE 13.8 mph - N/A   Scattered Clouds
6:53 PM 82.0 °F 83.8 °F 64.9 °F 56% 29.93 in 10.0 mi NNE 8.1 mph - N/A   Mostly Cloudy
7:53 PM 81.0 °F 82.5 °F 64.0 °F 56% 29.94 in 10.0 mi NE 12.7 mph - N/A   Scattered Clouds
8:53 PM 80.1 °F 81.9 °F 64.9 °F 60% 29.94 in 10.0 mi NE 10.4 mph - N/A   Scattered Clouds
9:53 PM 80.1 °F 81.9 °F 64.9 °F 60% 29.95 in 10.0 mi NE 10.4 mph - N/A   Scattered Clouds
10:53 PM 80.1 °F 81.5 °F 63.0 °F 56% 29.96 in 10.0 mi ENE 10.4 mph - N/A   Scattered Clouds
11:53 PM 80.1 °F 81.9 °F 64.9 °F 60% 29.94 in 10.0 mi NE 8.1 mph - N/A   Scattered Clouds